Location: Haliburton Scout Reserve
(45.0900°N, 78.3200°W)
Time: 14:47:04
(UTC-04:00)

DX 1 - Visible Passes

Search period start: 16 May 2022 00:00
Search period end: 26 May 2022 00:00
Orbit: 617 x 630 km, 98.4° (Epoch: 16 May)

Date Brightness Start Highest point End Pass type
(mag) Time Alt. Az. Time Alt. Az. Time Alt. Az.
16 May ? 22:17:12 10° NNE 22:21:34 83° ESE 22:25:31 12° SSW visible
16 May ? 23:55:27 10° NW 23:57:03 12° WNW 23:58:39 10° W visible
17 May ? 22:35:35 10° N 22:39:53 64° WNW 22:44:08 10° SSW visible
18 May ? 21:18:39 10° NE 21:21:52 20° E 21:25:05 10° SE visible
18 May ? 22:54:04 10° N 22:58:10 41° WNW 23:02:14 10° SW visible
19 May ? 21:36:30 10° NE 21:40:20 30° E 21:44:07 10° SSE visible
19 May ? 23:12:41 10° N 23:16:24 28° WNW 23:20:05 10° SW visible
20 May ? 21:54:34 10° NNE 21:58:46 46° E 22:02:44 11° S visible
20 May ? 23:31:28 10° NNW 23:34:34 19° WNW 23:37:40 10° WSW visible
21 May ? 22:12:47 10° NNE 22:17:09 72° ESE 22:21:21 11° S visible
21 May ? 23:50:36 10° NNW 23:52:42 13° WNW 23:54:48 10° W visible
22 May ? 22:31:07 10° N 22:35:28 74° WNW 22:39:49 10° SSW visible
23 May ? 22:49:34 10° N 22:53:45 47° WNW 22:57:56 10° SW visible
24 May ? 21:32:10 10° NE 21:35:52 26° E 21:39:33 10° SSE visible
24 May ? 23:08:08 10° N 23:11:59 32° WNW 23:15:51 10° SW visible
25 May ? 21:50:11 10° NNE 21:54:18 40° E 21:58:24 10° S visible
25 May ? 23:26:50 10° NNW 23:30:11 22° WNW 23:33:30 10° WSW visible
